Torna al catalogo

JACK-001

AttivoScienzaSSO
NORAD 64547·PAYLOAD·🇰🇷 South Korea
Questo nome del satellite non è ancora stato confermato da fonti ufficiali.

Lanciato Jun 23, 2025 da Vandenberg Space Force Base

Loading…

Prossimi Passaggi (prossime 24 ore)

TLE

AggiornatoSource: Space-Track

Epoca: Sep 14, 2026, 02:48 UTC

1 64547U 25135V   26257.11698868  .00007261  00000-0  28262-3 0  9990
2 64547  97.4705  12.7347 0000665  85.7472 274.3842 15.26303675 68488

Traccia JACK-001 in tempo reale con AllMySat

Download on the App Store